Location: Dallas
(32.7833°N, 96.8000°W)
Time: 18:05:08
(UTC-05:00)

ISS - Visible Passes

Search period start: 19 August 2019 00:00
Search period end: 29 August 2019 00:00
Orbit: 410 x 420 km, 51.6° (Epoch: 20 August)

Date Brightness Start Highest point End Pass type
(mag) Time Alt. Az. Time Alt. Az. Time Alt. Az.
22 Aug -0.9 06:23:48 10° SSE 06:25:20 13° SE 06:26:53 10° E visible
24 Aug -2.7 06:21:02 10° SSW 06:24:12 43° SE 06:27:23 10° ENE visible
25 Aug -1.6 05:33:40 14° S 05:35:31 21° SE 05:38:08 10° ENE visible
26 Aug -0.8 04:47:17 11° ESE 04:47:17 11° ESE 04:47:52 10° ESE visible
26 Aug -3.4 06:20:11 11° WSW 06:23:13 49° NW 06:26:29 10° NE visible
27 Aug -3.8 05:33:41 52° SSW 05:34:24 80° SE 05:37:44 10° NE visible
28 Aug -1.5 04:47:06 24° E 04:47:06 24° E 04:48:44 10° ENE visible
28 Aug -1.8 06:20:03 10° W 06:22:26 18° NW 06:24:50 10° NNE visible
